Time,TemperatureF,DewpointF,PressureIn,WindDirection,WindDirectionDegrees,WindSpeedMPH,WindSpeedGustMPH,Humidity,HourlyPrecipIn,Conditions,Clouds,dailyrainin,SoftwareType,DateUTC
2013-10-10 00:01:00,49.4,46.0,30.35,WNW,302,0.0,1.0,87,0.00,,,0.00,weatherlink.com 1.10,2013-10-10 04:01:00,
2013-10-10 00:16:00,49.2,46.0,30.35,WNW,302,1.0,1.0,88,0.00,,,0.00,weatherlink.com 1.10,2013-10-10 04:16:00,
2013-10-10 00:31:00,49.0,46.0,30.35,WNW,302,0.0,1.0,88,0.00,,,0.00,weatherlink.com 1.10,2013-10-10 04:31:00,
2013-10-10 00:46:00,48.7,45.0,30.35,WNW,302,0.0,1.0,88,0.00,,,0.00,weatherlink.com 1.10,2013-10-10 04:46:00,
2013-10-10 01:01:00,48.3,45.0,30.35,WNW,302,0.0,0.0,89,0.00,,,0.00,weatherlink.com 1.10,2013-10-10 05:01:00,
2013-10-10 01:16:00,48.2,46.0,30.34,WNW,302,0.0,1.0,90,0.00,,,0.00,weatherlink.com 1.10,2013-10-10 05:16:00,
2013-10-10 01:31:00,48.2,47.0,30.35,WNW,302,0.0,0.0,94,0.00,,,0.00,weatherlink.com 1.10,2013-10-10 05:31:00,
2013-10-10 01:46:00,48.4,46.0,30.34,WNW,302,0.0,2.0,90,0.00,,,0.00,weatherlink.com 1.10,2013-10-10 05:46:00,
2013-10-10 02:01:00,48.5,46.0,30.34,WNW,302,0.0,1.0,89,0.00,,,0.00,weatherlink.com 1.10,2013-10-10 06:01:00,
2013-10-10 02:16:00,48.5,46.0,30.34,WNW,302,0.0,0.0,89,0.00,,,0.00,weatherlink.com 1.10,2013-10-10 06:16:00,
2013-10-10 02:31:00,48.4,45.0,30.33,WNW,302,0.0,2.0,88,0.00,,,0.00,weatherlink.com 1.10,2013-10-10 06:31:00,
2013-10-10 02:46:00,48.4,45.0,30.32,WNW,302,0.0,1.0,89,0.00,,,0.00,weatherlink.com 1.10,2013-10-10 06:46:00,
2013-10-10 03:01:00,48.3,45.0,30.31,WNW,302,0.0,1.0,89,0.00,,,0.00,weatherlink.com 1.10,2013-10-10 07:01:00,
2013-10-10 03:16:00,48.1,45.0,30.31,WNW,302,0.0,1.0,90,0.00,,,0.00,weatherlink.com 1.10,2013-10-10 07:16:00,
2013-10-10 03:31:00,48.1,45.0,30.31,WNW,302,0.0,1.0,90,0.00,,,0.00,weatherlink.com 1.10,2013-10-10 07:31:00,
2013-10-10 03:46:00,48.1,45.0,30.31,WNW,302,0.0,1.0,89,0.00,,,0.00,weatherlink.com 1.10,2013-10-10 07:46:00,
2013-10-10 04:02:00,48.1,45.0,30.31,WNW,302,1.0,1.0,88,0.00,,,0.00,weatherlink.com 1.10,2013-10-10 08:02:00,
2013-10-10 04:17:00,48.4,45.0,30.31,WNW,302,0.0,0.0,88,0.00,,,0.00,weatherlink.com 1.10,2013-10-10 08:17:00,
2013-10-10 04:32:00,48.6,45.0,30.31,WNW,302,0.0,1.0,88,0.00,,,0.00,weatherlink.com 1.10,2013-10-10 08:32:00,
2013-10-10 04:47:00,48.5,46.0,30.31,WNW,302,0.0,0.0,89,0.00,,,0.00,weatherlink.com 1.10,2013-10-10 08:47:00,
2013-10-10 05:02:00,48.4,45.0,30.32,WNW,302,0.0,1.0,89,0.00,,,0.00,weatherlink.com 1.10,2013-10-10 09:02:00,
2013-10-10 05:17:00,48.4,45.0,30.32,WNW,302,1.0,2.0,89,0.00,,,0.00,weatherlink.com 1.10,2013-10-10 09:17:00,
2013-10-10 05:32:00,48.5,46.0,30.31,WNW,302,0.0,1.0,89,0.00,,,0.00,weatherlink.com 1.10,2013-10-10 09:32:00,
2013-10-10 05:47:00,48.6,46.0,30.31,WNW,302,0.0,1.0,89,0.00,,,0.00,weatherlink.com 1.10,2013-10-10 09:47:00,
2013-10-10 06:02:00,48.7,46.0,30.32,WNW,302,0.0,1.0,90,0.00,,,0.00,weatherlink.com 1.10,2013-10-10 10:02:00,
2013-10-10 06:17:00,48.5,46.0,30.32,WNW,302,1.0,1.0,90,0.00,,,0.00,weatherlink.com 1.10,2013-10-10 10:17:00,
2013-10-10 06:32:00,48.4,45.0,30.31,WNW,302,0.0,2.0,89,0.00,,,0.00,weatherlink.com 1.10,2013-10-10 10:32:00,
2013-10-10 06:47:00,48.3,45.0,30.31,WNW,302,0.0,1.0,89,0.00,,,0.00,weatherlink.com 1.10,2013-10-10 10:47:00,
2013-10-10 07:02:00,48.3,45.0,30.30,WNW,302,0.0,1.0,89,0.00,,,0.00,weatherlink.com 1.10,2013-10-10 11:02:00,
2013-10-10 07:17:00,48.4,45.0,30.30,WNW,302,0.0,1.0,89,0.00,,,0.00,weatherlink.com 1.10,2013-10-10 11:17:00,
2013-10-10 07:32:00,48.5,46.0,30.30,WNW,302,0.0,0.0,89,0.00,,,0.00,weatherlink.com 1.10,2013-10-10 11:32:00,
2013-10-10 07:47:00,48.7,46.0,30.30,WNW,302,0.0,0.0,89,0.00,,,0.00,weatherlink.com 1.10,2013-10-10 11:47:00,
2013-10-10 08:02:00,48.9,46.0,30.30,WNW,302,0.0,0.0,89,0.00,,,0.00,weatherlink.com 1.10,2013-10-10 12:02:00,
2013-10-10 08:17:00,49.2,46.0,30.30,WNW,302,0.0,0.0,89,0.00,,,0.00,weatherlink.com 1.10,2013-10-10 12:17:00,
2013-10-10 08:32:00,49.6,47.0,30.30,WNW,302,0.0,0.0,89,0.00,,,0.00,weatherlink.com 1.10,2013-10-10 12:32:00,
2013-10-10 08:47:00,50.1,47.0,30.30,WNW,302,0.0,1.0,88,0.00,,,0.00,weatherlink.com 1.10,2013-10-10 12:47:00,
2013-10-10 09:02:00,50.6,47.0,30.30,WNW,302,0.0,1.0,88,0.00,,,0.00,weatherlink.com 1.10,2013-10-10 13:02:00,
2013-10-10 09:17:00,51.1,47.0,30.30,WNW,302,0.0,1.0,86,0.00,,,0.00,weatherlink.com 1.10,2013-10-10 13:17:00,
2013-10-10 09:32:00,51.6,48.0,30.30,WNW,302,0.0,1.0,86,0.00,,,0.00,weatherlink.com 1.10,2013-10-10 13:32:00,
2013-10-10 09:47:00,52.0,48.0,30.30,WNW,302,1.0,2.0,85,0.00,,,0.00,weatherlink.com 1.10,2013-10-10 13:47:00,
2013-10-10 10:02:00,52.5,48.0,30.30,WNW,302,0.0,2.0,84,0.00,,,0.00,weatherlink.com 1.10,2013-10-10 14:02:00,
2013-10-10 10:17:00,53.0,48.0,30.29,WNW,302,0.0,2.0,84,0.00,,,0.00,weatherlink.com 1.10,2013-10-10 14:17:00,
2013-10-10 10:32:00,53.5,49.0,30.28,NNW,341,0.0,3.0,83,0.00,,,0.00,weatherlink.com 1.10,2013-10-10 14:32:00,
2013-10-10 10:47:00,53.9,49.0,30.28,NNW,341,0.0,2.0,84,0.00,,,0.00,weatherlink.com 1.10,2013-10-10 14:47:00,
2013-10-10 11:02:00,54.0,49.0,30.27,NNW,341,0.0,2.0,83,0.00,,,0.00,weatherlink.com 1.10,2013-10-10 15:02:00,
2013-10-10 11:17:00,54.1,50.0,30.27,NNW,341,0.0,2.0,85,0.00,,,0.00,weatherlink.com 1.10,2013-10-10 15:17:00,
2013-10-10 11:32:00,54.4,50.0,30.27,NNW,341,1.0,2.0,85,0.00,,,0.00,weatherlink.com 1.10,2013-10-10 15:32:00,
2013-10-10 11:47:00,54.9,51.0,30.27,NNW,341,0.0,2.0,86,0.00,,,0.00,weatherlink.com 1.10,2013-10-10 15:47:00,
2013-10-10 12:02:00,55.3,51.0,30.26,NNW,341,1.0,3.0,84,0.00,,,0.00,weatherlink.com 1.10,2013-10-10 16:02:00,
2013-10-10 12:17:00,55.7,51.0,30.25,NNW,341,0.0,2.0,85,0.00,,,0.00,weatherlink.com 1.10,2013-10-10 16:17:00,
2013-10-10 12:32:00,55.9,52.0,30.25,NNW,339,0.0,1.0,85,0.00,,,0.00,weatherlink.com 1.10,2013-10-10 16:32:00,
2013-10-10 12:48:00,56.2,52.0,30.24,NNW,339,0.0,2.0,85,0.00,,,0.00,weatherlink.com 1.10,2013-10-10 16:48:00,
2013-10-10 13:03:00,56.7,52.0,30.23,NW,317,0.0,3.0,84,0.00,,,0.00,weatherlink.com 1.10,2013-10-10 17:03:00,
2013-10-10 13:18:00,57.3,52.0,30.24,NW,317,0.0,1.0,83,0.00,,,0.00,weatherlink.com 1.10,2013-10-10 17:18:00,
2013-10-10 13:33:00,57.7,53.0,30.24,NW,317,0.0,1.0,84,0.00,,,0.00,weatherlink.com 1.10,2013-10-10 17:33:00,
2013-10-10 13:48:00,58.3,53.0,30.23,NW,317,1.0,2.0,83,0.00,,,0.00,weatherlink.com 1.10,2013-10-10 17:48:00,
2013-10-10 14:03:00,58.9,53.0,30.23,NW,317,1.0,2.0,82,0.00,,,0.00,weatherlink.com 1.10,2013-10-10 18:03:00,
2013-10-10 14:18:00,59.2,54.0,30.22,NW,323,1.0,2.0,83,0.00,,,0.00,weatherlink.com 1.10,2013-10-10 18:18:00,
2013-10-10 14:33:00,59.6,54.0,30.21,NW,323,0.0,2.0,82,0.00,,,0.00,weatherlink.com 1.10,2013-10-10 18:33:00,
2013-10-10 14:48:00,60.1,54.0,30.21,NW,323,1.0,3.0,81,0.00,,,0.00,weatherlink.com 1.10,2013-10-10 18:48:00,
2013-10-10 15:03:00,60.2,54.0,30.21,NW,323,0.0,1.0,81,0.00,,,0.00,weatherlink.com 1.10,2013-10-10 19:03:00,
2013-10-10 15:18:00,60.3,55.0,30.21,NW,323,0.0,1.0,82,0.00,,,0.00,weatherlink.com 1.10,2013-10-10 19:18:00,
2013-10-10 15:33:00,60.3,55.0,30.20,NW,323,0.0,1.0,82,0.00,,,0.00,weatherlink.com 1.10,2013-10-10 19:33:00,
2013-10-10 15:48:00,60.4,56.0,30.20,NW,323,0.0,1.0,84,0.00,,,0.00,weatherlink.com 1.10,2013-10-10 19:48:00,
2013-10-10 16:03:00,60.2,55.0,30.19,NW,323,1.0,1.0,82,0.00,,,0.00,weatherlink.com 1.10,2013-10-10 20:03:00,
2013-10-10 16:18:00,60.0,55.0,30.19,NW,323,0.0,2.0,82,0.00,,,0.00,weatherlink.com 1.10,2013-10-10 20:18:00,
2013-10-10 16:34:00,59.9,54.0,30.18,NW,323,0.0,2.0,82,0.00,,,0.00,weatherlink.com 1.10,2013-10-10 20:34:00,
2013-10-10 16:49:00,59.8,54.0,30.18,NW,323,0.0,1.0,82,0.00,,,0.00,weatherlink.com 1.10,2013-10-10 20:49:00,
2013-10-10 17:04:00,59.6,54.0,30.18,NW,323,0.0,1.0,83,0.00,,,0.00,weatherlink.com 1.10,2013-10-10 21:04:00,
2013-10-10 17:19:00,59.3,54.0,30.18,NW,323,0.0,1.0,83,0.00,,,0.00,weatherlink.com 1.10,2013-10-10 21:19:00,
2013-10-10 17:34:00,59.1,54.0,30.18,NW,323,0.0,1.0,83,0.00,,,0.00,weatherlink.com 1.10,2013-10-10 21:34:00,
2013-10-10 17:49:00,58.7,54.0,30.17,NNW,344,1.0,2.0,83,0.00,,,0.00,weatherlink.com 1.10,2013-10-10 21:49:00,
2013-10-10 18:04:00,58.4,54.0,30.18,NNW,344,0.0,1.0,84,0.00,,,0.00,weatherlink.com 1.10,2013-10-10 22:04:00,
2013-10-10 18:19:00,57.9,54.0,30.18,NNW,344,0.0,1.0,86,0.00,,,0.00,weatherlink.com 1.10,2013-10-10 22:19:00,
2013-10-10 18:34:00,57.5,54.0,30.18,NNW,344,0.0,0.0,87,0.00,,,0.00,weatherlink.com 1.10,2013-10-10 22:34:00,
2013-10-10 18:49:00,57.1,54.0,30.18,NNW,344,0.0,1.0,88,0.00,,,0.00,weatherlink.com 1.10,2013-10-10 22:49:00,
2013-10-10 19:05:00,56.7,54.0,30.19,NNW,344,0.0,0.0,89,0.00,,,0.00,weatherlink.com 1.10,2013-10-10 23:05:00,
2013-10-10 19:19:00,56.4,53.0,30.19,NNW,344,0.0,0.0,89,0.00,,,0.00,weatherlink.com 1.10,2013-10-10 23:19:00,
2013-10-10 19:34:00,56.4,52.0,30.18,NNW,344,0.0,2.0,86,0.00,,,0.00,weatherlink.com 1.10,2013-10-10 23:34:00,
2013-10-10 19:49:00,56.5,52.0,30.18,NNW,339,0.0,3.0,85,0.00,,,0.00,weatherlink.com 1.10,2013-10-10 23:49:00,
2013-10-10 20:04:00,56.6,52.0,30.18,NNW,339,0.0,2.0,83,0.00,,,0.00,weatherlink.com 1.10,2013-10-11 00:04:00,
2013-10-10 20:19:00,56.4,51.0,30.18,NNW,338,0.0,2.0,83,0.00,,,0.00,weatherlink.com 1.10,2013-10-11 00:19:00,
2013-10-10 20:34:00,56.0,52.0,30.18,NNW,338,0.0,1.0,85,0.00,,,0.00,weatherlink.com 1.10,2013-10-11 00:34:00,
2013-10-10 20:49:00,55.7,51.0,30.18,NNW,338,0.0,1.0,85,0.00,,,0.00,weatherlink.com 1.10,2013-10-11 00:49:00,
2013-10-10 21:04:00,55.5,51.0,30.18,NNW,338,0.0,0.0,86,0.00,,,0.00,weatherlink.com 1.10,2013-10-11 01:04:00,
2013-10-10 21:19:00,55.2,51.0,30.18,NNW,338,0.0,0.0,86,0.00,,,0.00,weatherlink.com 1.10,2013-10-11 01:19:00,
2013-10-10 21:34:00,55.2,51.0,30.18,NNW,338,0.0,1.0,86,0.00,,,0.00,weatherlink.com 1.10,2013-10-11 01:34:00,
2013-10-10 21:49:00,55.4,51.0,30.18,NNW,338,0.0,0.0,86,0.00,,,0.00,weatherlink.com 1.10,2013-10-11 01:49:00,
2013-10-10 22:04:00,55.4,52.0,30.18,NNW,338,0.0,0.0,87,0.00,,,0.00,weatherlink.com 1.10,2013-10-11 02:04:00,
2013-10-10 22:19:00,55.4,51.0,30.18,NNW,338,0.0,3.0,86,0.00,,,0.00,weatherlink.com 1.10,2013-10-11 02:19:00,
2013-10-10 22:34:00,55.5,51.0,30.18,SSW,213,0.0,2.0,86,0.00,,,0.00,weatherlink.com 1.10,2013-10-11 02:34:00,
2013-10-10 22:49:00,55.5,51.0,30.18,SSW,213,0.0,1.0,85,0.00,,,0.00,weatherlink.com 1.10,2013-10-11 02:49:00,
2013-10-10 23:04:00,55.6,51.0,30.18,SSW,213,0.0,2.0,85,0.00,,,0.00,weatherlink.com 1.10,2013-10-11 03:04:00,
2013-10-10 23:19:00,55.5,51.0,30.17,NW,306,1.0,2.0,86,0.00,,,0.00,weatherlink.com 1.10,2013-10-11 03:19:00,
2013-10-10 23:34:00,55.7,51.0,30.16,NNW,344,1.0,3.0,85,0.00,,,0.00,weatherlink.com 1.10,2013-10-11 03:34:00,
2013-10-10 23:49:00,55.8,51.0,30.15,NNW,344,1.0,3.0,84,0.00,,,0.00,weatherlink.com 1.10,2013-10-11 03:49:00,